User: anonymous   Login
Location: Castro Valley
(37.6940°N, 122.0850°W)
Time: 16:40:32
(UTC-08:00)
Language:

PANSAT - Orbit

View from above orbital plane
View from above orbital plane
View from above satellite
View from above satellite

Ground track
Ground track

The orbit data is extracted from the following two-line orbital elements,

1 25520U 98064B   16039.58867568 +.00002958 +00000-0 +99452-4 0  9990
2 25520 028.4581 110.7679 0005094 283.5959 076.4069 15.27302440958242
Epoch (UTC): 08 February 2016 14:07:41
Eccentricity: 0.0005094
inclination: 28.4581°
perigee height: 480 km
apogee height: 487 km
right ascension of ascending node: 110.7679°
argument of perigee: 283.5959°
revolutions per day: 15.27302440
mean anomaly at epoch: 76.4069°
orbit number at epoch: 95824

The dashed part of the orbit path shows where the satellite is in the earth's shadow,  

DLR